[[{"header":{"parameterUnit":"m.s-1","parameterCategory":1,"la1":30.2991,"la2":30.254,"lo1":-89.0895,"lo2":-89.0444,"dy":0.0017,"dx":0.0017,"nx":28,"ny":28,"refTime":"2024-03-19T09:00:00:Z","depth":0,"parameterNumber":2,"parameterNumberName":"U-component_of_WINDS"},"data":[0,0,0,0,0,0,0,0,0,0,0,0,0,0,0,0,0,0,0,0,0,0,0,0,0,0,0,0,0,0,0,0,0,0,0,0,0,0,0,0,0,0,0,0,0,0,0,0,0,0,0,0,0,0,0,0,0,0,0.7686,0.7687,0,0.7801,0.7802,0.7804,0.7879,0.7879,0.788,0.788,0.7999,0.8002,0.8005,0,0,0,0,0,0,0,0,0,0,0,0,0,0.7533,0.7535,0.7686,0.7688,0.7689,0.7801,0.7803,0.7804,0.7879,0.7879,0.788,0.7881,0.7998,0.8002,0.8005,0,0,0,0,0,0,0,0,0,0,0,0,0,0.7618,0.7536,0.7686,0.774,0.7746,0.7801,0.7803,0.7805,0.7879,0.7879,0.788,0.7881,0.7997,0.8001,0.8005,0.8016,0,0,0.8018,0.8019,0,0,0,0,0,0,0,0,0.7614,0.7624,0.773,0.7736,0.7743,0.7826,0.7792,0.7875,0.7879,0.7828,0.788,0.7881,0.7941,0.795,0.797,0.8022,0.8027,0.8018,0.8021,0.8022,0.8023,0,0,0,0,0,0,0,0.7607,0.762,0.7732,0.7732,0.774,0.7759,0.7772,0.7808,0.7879,0.7833,0.7838,0.7851,0.7945,0.7966,0.7973,0.8028,0.8018,0.8022,0.8024,0.8026,0.8094,0.8094,0,0,0,0,0,0,0.7593,0.7614,0.7728,0.7735,0.7679,0.7761,0.7775,0.7799,0.7879,0.7892,0.785,0.7854,0.7959,0.7968,0.7978,0.7995,0.8022,0.8026,0.8028,0.8095,0.8094,0.8094,0,0,0,0,0,0,0.7589,0.7602,0.7723,0.7676,0.7693,0.7763,0.7789,0.7801,0.7822,0.7892,0.7906,0.7858,0.796,0.7972,0.8006,0.8,0.8028,0.8032,0.8096,0.8095,0.8094,0.803,0,0,0,0,0,0,0.7585,0.7601,0.7605,0.7676,0.7695,0.7749,0.7788,0.7803,0.7829,0.7835,0.7904,0.7916,0.7961,0.7999,0.801,0.8006,0.8035,0.8096,0.8095,0.8094,0.8033,0.8027,0.8022,0,0,0,0,0,0.7579,0.7583,0.7605,0.7618,0.7702,0.7748,0.776,0.7811,0.7828,0.7833,0.7878,0.7914,0.7999,0.8002,0.8015,0.8012,0.8097,0.8096,0.8094,0.8035,0.8028,0.8022,0,0,0,0,0,0,0.751,0.7593,0.7618,0.7645,0.7689,0.7761,0.7769,0.7802,0.7842,0.7846,0.7909,0.7924,0.7951,0.7986,0.7987,0.8027,0.8052,0.8053,0.8003,0.7997,0.7992,0.7982,0.8038,0,0,0,0,0,0.7498,0.7528,0.7599,0.7616,0.7637,0.7699,0.7721,0.7757,0.7805,0.7824,0.7872,0.7917,0.7955,0.7978,0.8016,0.8038,0.8054,0.8043,0.8038,0.8033,0.8033,0.8046,0.8042,0.8089,0.8089,0.8089,0,0,0.7473,0.7522,0.7538,0.7604,0.7642,0.7672,0.7714,0.7744,0.7767,0.7829,0.7863,0.79,0.7955,0.7983,0.7997,0.8012,0.8023,0.8031,0.8027,0.8029,0.8044,0.804,0.8036,0.8088,0.8088,0.8088,0,0,0.7444,0.7484,0.7502,0.7539,0.7597,0.7638,0.7642,0.7709,0.7736,0.7771,0.7818,0.7847,0.791,0.7947,0.7974,0.7958,0.7992,0.7969,0.794,0.7952,0.7949,0.7946,0.7939,0.7936,0.7969,0.7969,0.7968,0,0.7406,0.7452,0.7507,0.7535,0.7562,0.7619,0.7638,0.7672,0.7739,0.7756,0.7772,0.7852,0.7893,0.793,0.7926,0.7946,0.7953,0.7961,0.7945,0.7942,0.794,0.7935,0.7932,0.7965,0.7966,0.7966,0.7966,0,0.7403,0.7434,0.7443,0.7505,0.7533,0.7556,0.7615,0.7637,0.7671,0.771,0.7746,0.7797,0.7847,0.7858,0.7892,0.79,0.7907,0.7933,0.796,0.7932,0.7927,0.7926,0.7961,0.7962,0.7963,0.7964,0,0,0.7332,0.7425,0.7427,0.7455,0.7523,0.7548,0.7574,0.7622,0.7639,0.7684,0.7707,0.7759,0.7783,0.7813,0.7852,0.7863,0.7846,0.7887,0.789,0.7877,0.7857,0.7836,0.7833,0.7869,0.7869,0.7869,0.7852,0,0.7312,0.736,0.741,0.7441,0.7471,0.7525,0.7548,0.7591,0.7629,0.766,0.7703,0.7738,0.7768,0.7786,0.78,0.7845,0.7842,0.7847,0.789,0.7891,0.7873,0.7831,0.7809,0.7791,0.7851,0.7851,0.7851,0,0.7295,0.7335,0.7368,0.7433,0.7447,0.7466,0.7514,0.7543,0.7594,0.762,0.7654,0.7695,0.7725,0.7748,0.779,0.7792,0.7813,0.7838,0.7838,0.7843,0.7868,0.7834,0.7787,0.7783,0.7849,0.7849,0.7849,0,0.7238,0.7302,0.733,0.7353,0.7429,0.7441,0.7473,0.7525,0.755,0.7592,0.7609,0.7654,0.7678,0.7712,0.7764,0.7777,0.78,0.7828,0.7822,0.7821,0.7824,0.7823,0.7778,0.7839,0.7839,0.7839,0.7839,0,0.721,0.7228,0.7306,0.7322,0.7344,0.7402,0.7422,0.746,0.7505,0.753,0.7581,0.7604,0.7671,0.7702,0.7742,0.777,0.7781,0.7803,0.7814,0.7798,0.7795,0.7812,0.7814,0.7839,0.7839,0.7839,0.7839,0,0.715,0.7203,0.7237,0.7306,0.7324,0.7337,0.7396,0.7414,0.7455,0.7487,0.7497,0.7562,0.76,0.7655,0.7711,0.7739,0.776,0.7778,0.7742,0.7748,0.7739,0.7739,0.7703,0.7701,0.7763,0.7763,0.7762,0,0.7128,0.7143,0.7213,0.7233,0.7264,0.7296,0.7322,0.738,0.7405,0.7464,0.7475,0.7518,0.7555,0.7614,0.7666,0.7709,0.7727,0.7712,0.7734,0.7717,0.7726,0.7723,0.7725,0.7706,0.7705,0.7704,0.7703,0,0.7082,0.7108,0.7143,0.7187,0.7217,0.7255,0.7295,0.7309,0.7375,0.7401,0.7441,0.747,0.7526,0.7568,0.7618,0.7651,0.7688,0.7696,0.7697,0.768,0.7659,0.7669,0.7727,0.7696,0.7697,0.7698,0.7698,0.7698,0.704,0.7055,0.7107,0.7145,0.7181,0.7217,0.7238,0.7281,0.7316,0.7366,0.7398,0.7436,0.7487,0.7557,0.7589,0.762,0.7635,0.7637,0.7637,0.7636,0.763,0.7655,0.763,0.763,0.763,0.763,0.7631,0,0.6996,0.7032,0.7066,0.712,0.715,0.7182,0.7228,0.7251,0.7283,0.7327,0.7362,0.7408,0.7449,0.7503,0.7548,0.7562,0.758,0.7571,0.757,0.7577,0.7614,0.7609,0.7556,0.7556,0.7556,0.7556,0.7556,0.7556,0.6976,0.7004,0.7035,0.7081,0.7118,0.7155,0.7178,0.7212,0.7248,0.7296,0.733,0.7365,0.7413,0.7462,0.75,0.7515,0.7529,0.7515,0.7535,0.7568,0.7575,0.7581,0.7576,0.7518,0.7518,0.7495,0.7495,0.7495]},{"header":{"parameterUnit":"m.s-1","parameterCategory":1,"la1":30.2991,"la2":30.254,"lo1":-89.0895,"lo2":-89.0444,"dy":0.0017,"dx":0.0017,"nx":28,"ny":28,"refTime":"2024-03-19T09:00:00:Z","depth":0,"parameterNumber":3,"parameterNumberName":"V-component_of_WINDS"},"data":[0,0,0,0,0,0,0,0,0,0,0,0,0,0,0,0,0,0,0,0,0,0,0,0,0,0,0,0,0,0,0,0,0,0,0,0,0,0,0,0,0,0,0,0,0,0,0,0,0,0,0,0,0,0,0,0,0,0,0.4287,0.4287,0,0.4272,0.4272,0.4271,0.4279,0.4279,0.428,0.428,0.4264,0.4263,0.4263,0,0,0,0,0,0,0,0,0,0,0,0,0,0.4321,0.432,0.4287,0.4287,0.4287,0.4272,0.4272,0.4271,0.4279,0.4279,0.428,0.428,0.4264,0.4264,0.4263,0,0,0,0,0,0,0,0,0,0,0,0,0,0.4306,0.432,0.4287,0.4289,0.4289,0.4272,0.4272,0.4271,0.4279,0.4279,0.428,0.4281,0.4265,0.4264,0.4262,0.4243,0,0,0.4259,0.4258,0,0,0,0,0,0,0,0,0.4307,0.4305,0.4289,0.4288,0.4288,0.4278,0.4278,0.4262,0.4279,0.4282,0.428,0.4281,0.4268,0.4267,0.4263,0.4242,0.4242,0.4259,0.4258,0.4257,0.4257,0,0,0,0,0,0,0,0.4308,0.4305,0.4281,0.4288,0.4288,0.4289,0.4288,0.4275,0.4272,0.4282,0.4283,0.4281,0.4268,0.4264,0.4262,0.4242,0.4259,0.4258,0.4257,0.4256,0.4201,0.4201,0,0,0,0,0,0,0.4309,0.4306,0.4281,0.4281,0.4299,0.4288,0.4287,0.4281,0.4272,0.4272,0.428,0.4281,0.4265,0.4264,0.4262,0.4236,0.4257,0.4256,0.4256,0.4202,0.4201,0.42,0,0,0,0,0,0,0.431,0.4307,0.4282,0.4293,0.429,0.4287,0.428,0.428,0.4275,0.4271,0.427,0.4276,0.4266,0.4263,0.4247,0.4236,0.4256,0.4255,0.4203,0.4202,0.4201,0.4187,0,0,0,0,0,0,0.431,0.4307,0.43,0.4293,0.429,0.4268,0.428,0.4279,0.4273,0.4274,0.4267,0.4266,0.4266,0.4249,0.4246,0.4235,0.4254,0.4204,0.4202,0.4201,0.4188,0.4185,0.4183,0,0,0,0,0,0.4312,0.4297,0.43,0.4297,0.4281,0.4268,0.4266,0.4266,0.4273,0.4265,0.4262,0.4267,0.4238,0.4247,0.4244,0.4232,0.4205,0.4203,0.4201,0.4189,0.4186,0.4183,0,0,0,0,0,0,0.4304,0.4297,0.4299,0.4282,0.4275,0.4269,0.426,0.4263,0.4254,0.4255,0.4255,0.4254,0.4236,0.4233,0.4243,0.4211,0.4222,0.422,0.4214,0.4211,0.4208,0.4209,0.4253,0,0,0,0,0,0.43,0.429,0.4284,0.427,0.4266,0.4263,0.4257,0.4258,0.4251,0.4248,0.4244,0.4236,0.4225,0.4218,0.4208,0.4188,0.4185,0.4178,0.4175,0.4173,0.417,0.4157,0.4153,0.4195,0.4195,0.4195,0,0,0.4292,0.4287,0.4281,0.4268,0.4263,0.4251,0.4261,0.4249,0.424,0.4246,0.423,0.4226,0.4218,0.4198,0.419,0.4195,0.4158,0.4171,0.4169,0.4168,0.4154,0.415,0.4147,0.4194,0.4194,0.4194,0,0,0.4272,0.4268,0.4254,0.4248,0.4239,0.4237,0.4234,0.4226,0.4224,0.4207,0.4211,0.42,0.4182,0.4175,0.4169,0.4142,0.4145,0.4139,0.4125,0.4111,0.4108,0.4105,0.4093,0.4089,0.4137,0.4137,0.4137,0,0.4263,0.4246,0.4247,0.4233,0.4227,0.4231,0.4216,0.421,0.4199,0.4194,0.42,0.4175,0.417,0.4147,0.4141,0.4137,0.4131,0.414,0.4108,0.4105,0.4103,0.4091,0.4087,0.4136,0.4136,0.4136,0.4136,0,0.4235,0.4223,0.4213,0.42,0.4193,0.4179,0.4176,0.4168,0.4168,0.4165,0.4146,0.414,0.4127,0.4122,0.4124,0.4099,0.4102,0.4109,0.4119,0.4098,0.4087,0.4083,0.4135,0.4135,0.4135,0.4136,0,0,0.421,0.4197,0.4193,0.4186,0.4175,0.4166,0.4151,0.4138,0.413,0.4121,0.4108,0.4091,0.4095,0.4088,0.4088,0.4077,0.4053,0.4084,0.4083,0.4076,0.4023,0.4017,0.4012,0.4055,0.4054,0.4054,0.4022,0,0.4188,0.4162,0.416,0.4137,0.4124,0.4127,0.4113,0.4105,0.4101,0.4089,0.4084,0.4071,0.408,0.4075,0.4064,0.4058,0.4042,0.4061,0.4041,0.404,0.4041,0.4007,0.4001,0.3972,0.4019,0.4018,0.4017,0,0.4158,0.4147,0.4122,0.411,0.4105,0.4093,0.4079,0.4069,0.4058,0.4056,0.4046,0.4047,0.403,0.4042,0.4017,0.403,0.4022,0.4018,0.4016,0.4013,0.4026,0.4001,0.3963,0.3958,0.4011,0.4012,0.4012,0,0.414,0.4119,0.41,0.4095,0.4082,0.4072,0.4067,0.4057,0.4048,0.4036,0.403,0.4016,0.4008,0.3997,0.3993,0.4003,0.3968,0.398,0.3964,0.3963,0.3955,0.3956,0.3914,0.3953,0.3953,0.3953,0.3953,0,0.4114,0.4098,0.4091,0.408,0.4061,0.4059,0.4039,0.4034,0.4024,0.4011,0.4013,0.3999,0.3996,0.3982,0.3979,0.3958,0.3955,0.3951,0.395,0.395,0.395,0.3943,0.3944,0.3952,0.3952,0.3953,0.3953,0,0.4091,0.4086,0.4065,0.4053,0.405,0.4036,0.4026,0.4014,0.4009,0.3991,0.3987,0.398,0.3963,0.3958,0.3938,0.3936,0.391,0.3912,0.3913,0.3912,0.3895,0.3896,0.3847,0.3839,0.3885,0.3885,0.3884,0,0.4074,0.4061,0.4047,0.4038,0.4031,0.4016,0.4007,0.4003,0.3993,0.3978,0.3967,0.395,0.3936,0.3909,0.3901,0.3885,0.3885,0.3869,0.3883,0.3882,0.3882,0.3882,0.3879,0.3866,0.3865,0.3865,0.3865,0,0.4043,0.4041,0.4027,0.4012,0.4,0.3988,0.3976,0.3968,0.3962,0.3951,0.3933,0.3922,0.39,0.3882,0.3865,0.3858,0.3859,0.386,0.3855,0.3854,0.3854,0.3851,0.3903,0.3861,0.3861,0.3862,0.3862,0.3862,0.4021,0.4009,0.3996,0.398,0.397,0.3958,0.3945,0.3938,0.3923,0.3905,0.3904,0.3883,0.387,0.3847,0.3839,0.3822,0.3827,0.382,0.3818,0.3816,0.3813,0.3858,0.3819,0.3819,0.382,0.382,0.382,0,0.3989,0.3981,0.3966,0.3948,0.3934,0.3937,0.3923,0.3911,0.3893,0.3881,0.3866,0.3844,0.3826,0.3816,0.3797,0.3785,0.3785,0.378,0.378,0.3778,0.3812,0.3817,0.378,0.3781,0.3781,0.3781,0.3781,0.3781,0.3971,0.3949,0.3944,0.3917,0.3908,0.3888,0.3879,0.3867,0.3857,0.3832,0.3816,0.381,0.3797,0.3777,0.376,0.3757,0.3749,0.3743,0.3741,0.3772,0.3776,0.378,0.3784,0.3742,0.3742,0.3708,0.3708,0.3708]}]]